This demonstration page uses our WeatherBlox Daily Observations layout. Learn more.

Left ArrowRight Arrow

38.20091, -84.87328

Hourly Observations for July 30, 2015

Temp ( °F °C ) Dew Point ( °F °C ) Humidity (%) Winds ( mph kmh ) Pressure ( in mb ) Visibility ( mi km ) Precip ( " mm )
12:53 am 00:53 Clear 72 22.2 70 21.1 94 94 WSW 3 6 29.98 1015 10 16 0.00 0.00
1:53 am 01:53 Partly Cloudy 73 22.8 71 21.7 94 94 W 5 7 29.98 1015 7 11 0.00 0.00
2:02 am 02:02 Mostly Cloudy 73 22.8 71 21.7 94 94 WNW 5 7 29.97 1015 7 11 0.00 0.00
2:34 am 02:34 Partly Cloudy 73 22.8 71 21.7 94 94 WNW 6 9 29.97 1015 7 11 0.00 0.00
2:53 am 02:53 Clear 73 22.8 71 21.7 94 94 WNW 5 7 29.98 1015 7 11 0.00 0.00
3:53 am 03:53 Clear 73 22.8 70 21.1 90 90 NW 6 9 29.98 1015 10 16 0.00 0.00
4:53 am 04:53 Mostly Clear 71 21.7 66 18.9 84 84 NW 6 9 29.99 1016 10 16 0.00 0.00
5:53 am 05:53 Clear 70 21.1 65 18.3 84 84 NW 6 9 30.00 1016 10 16 0.00 0.00
6:53 am 06:53 Sunny 68 20 63 17.2 84 84 NW 7 11 30.02 1017 10 16 0.00 0.00
7:53 am 07:53 Sunny 69 20.6 63 17.2 81 81 NW 5 7 30.05 1018 10 16 0.00 0.00
8:53 am 08:53 Mostly Sunny 72 22.2 63 17.2 73 73 NNW 6 9 30.06 1018 10 16 0.00 0.00
9:53 am 09:53 Sunny 75 23.9 62 16.7 64 64 NW 6 9 30.06 1018 10 16 0.00 0.00
10:53 am 10:53 Sunny 79 26.1 61 16.1 54 54 VRB 5 7 30.07 1018 10 16 0.00 0.00
11:53 am 11:53 Sunny 81 27.2 60 15.6 49 49 NNW 6 9 30.08 1019 10 16 0.00 0.00
12:53 pm 12:53 Sunny 83 28.3 57 13.9 41 41 N 5 7 30.07 1018 10 16 0.00 0.00
1:53 pm 13:53 Sunny 83 28.3 54 12.2 37 37 WNW 8 13 30.06 1018 10 16 0.00 0.00
2:53 pm 14:53 Sunny 84 28.9 58 14.4 41 41 NW 8 13 30.06 1018 10 16 0.00 0.00
3:53 pm 15:53 Sunny 84 28.9 58 14.4 41 41 NW 8 13 30.05 1018 10 16 0.00 0.00
4:53 pm 16:53 Sunny 84 28.9 58 14.4 41 41 VRB 5 7 30.03 1017 10 16 0.00 0.00
5:53 pm 17:53 Sunny 84 28.9 58 14.4 41 41 NW 8 13 30.03 1017 10 16 0.00 0.00
6:53 pm 18:53 Sunny 83 28.3 58 14.4 43 43 NNW 8 13 30.02 1017 10 16 0.00 0.00
7:53 pm 19:53 Sunny 81 27.2 60 15.6 49 49 NW 3 6 30.02 1017 10 16 0.00 0.00
8:53 pm 20:53 Mostly Clear 76 24.4 62 16.7 62 62 Calm 30.02 1017 10 16 0.00 0.00
9:53 pm 21:53 Clear 70 21.1 63 17.2 79 79 Calm 30.04 1017 10 16 0.00 0.00
10:53 pm 22:53 Clear 69 20.6 62 16.7 78 78 Calm 30.05 1018 10 16 0.00 0.00
11:53 pm 23:53 Clear 67 19.4 63 17.2 87 87 Calm 30.05 1018 10 16 0.00 0.00

Powered by AerisWeather